Wind_Speed
12 11 10 9 8 8 7 5 5 3 3 3 4 5 3 4 5 4 4 4 3 3 5 6 7 6 6 6 8 9 11 13 14 16 19 20 19 19 19 21 24 27 29 32 35
14 12 11 11 8 9 8 6 5 5 1 4 5 6 5 5 6 5 4 1 2 3 4 5 5 5 5 7 10 12 13 14 17 18 19 19 20 20 21 23 26 28 31 34 38
17 14 12 12 11 9 9 7 6 6 3 2 6 8 7 7 7 6 2 3 4 3 4 4 4 5 6 10 13 15 16 17 20 20 20 20 20 20 22 25 28 30 33 38 43
18 17 15 13 12 12 9 9 7 6 6 4 6 7 8 8 6 4 3 4 4 2 3 3 4 6 9 12 14 16 19 21 22 21 20 20 20 22 24 27 29 31 36 42 49
15 16 16 15 14 13 13 10 8 8 7 8 7 7 8 9 7 4 5 5 3 1 2 4 7 10 12 14 16 19 22 22 22 21 20 19 20 23 25 27 29 34 41 47 53
15 16 16 17 16 14 14 13 10 9 8 9 9 8 7 9 7 6 6 5 3 1 2 5 8 10 13 14 17 20 21 21 21 20 19 19 20 23 25 26 31 39 44 48 55
16 16 15 16 18 17 14 14 13 10 10 10 11 9 7 8 6 7 8 6 4 3 4 6 8 11 12 15 18 18 20 21 21 19 18 19 20 23 24 28 35 41 44 50 56
16 16 15 15 16 19 17 14 14 13 10 12 12 9 10 7 8 8 9 6 5 4 5 7 9 10 12 16 16 17 20 21 21 20 19 19 21 21 25 31 36 41 46 52 56
15 17 16 15 15 17 19 17 15 15 13 13 13 11 11 9 9 10 9 7 6 5 5 7 8 9 13 13 14 18 20 21 21 18 18 19 20 20 25 31 37 43 48 53 57
18 15 17 17 15 16 18 19 18 16 15 13 14 13 12 12 10 11 10 8 7 6 7 8 7 9 12 11 14 18 20 22 20 15 16 18 17 20 26 32 38 45 50 55 59
18 17 16 18 15 15 17 18 19 18 18 15 14 15 13 13 12 13 12 9 7 6 7 6 5 9 9 11 15 18 21 22 19 14 16 17 17 20 27 34 40 46 52 56 55
18 20 16 17 17 16 17 18 19 20 17 17 15 15 16 14 14 15 14 11 8 6 6 4 4 6 7 11 15 19 23 23 19 15 17 15 15 21 29 34 41 47 52 57 46
17 19 20 16 17 19 18 18 19 20 19 18 18 16 17 16 16 16 15 12 9 7 5 4 3 4 6 11 14 18 22 23 20 15 19 14 16 22 30 34 42 46 51 56 40
18 18 20 19 18 19 18 20 18 21 21 20 19 17 17 17 17 18 17 14 11 8 5 4 3 2 5 9 14 18 22 24 22 18 19 14 15 23 28 35 43 45 50 54 37
20 19 20 21 20 19 19 20 22 20 21 22 20 18 18 19 18 20 19 17 13 10 6 5 4 3 5 8 13 17 22 25 24 19 21 16 17 23 29 36 43 44 47 52 37
20 21 21 23 23 21 20 20 21 22 20 20 20 19 19 20 21 22 21 18 16 12 8 6 5 5 5 6 10 16 22 23 25 23 22 18 19 24 28 36 43 45 46 51 43
21 22 23 24 24 23 21 22 22 23 21 22 24 21 19 21 22 23 23 21 18 14 10 8 7 7 5 5 7 13 18 25 26 26 24 22 18 22 27 36 43 44 48 51 48
22 22 22 23 27 24 22 23 23 21 24 22 23 24 23 20 21 24 26 23 21 18 13 10 9 9 7 4 5 10 16 21 26 27 27 23 19 21 27 34 41 46 49 50 48
23 24 22 24 25 26 25 23 20 22 24 24 23 25 25 23 21 24 27 26 24 21 16 13 12 11 10 7 5 7 13 18 23 24 26 25 20 19 24 31 39 46 48 49 50
23 24 25 26 27 24 24 21 22 25 25 26 26 24 25 26 23 24 27 28 27 23 20 16 15 14 13 10 8 7 10 15 18 25 27 25 22 18 22 28 36 43 46 46 48
24 25 26 27 29 27 22 20 23 26 29 27 28 26 24 27 28 25 27 30 30 26 24 20 17 17 15 14 12 9 9 12 16 20 25 26 24 20 19 25 32 38 42 43 44
25 26 27 28 29 27 25 23 23 28 30 31 30 27 26 28 29 30 26 30 31 29 26 24 19 20 18 17 16 14 10 11 15 17 21 25 24 21 18 21 27 33 38 40 40
27 28 28 28 29 28 27 27 27 28 33 33 32 33 30 29 30 32 31 31 32 32 30 27 24 22 22 20 18 18 15 11 13 16 18 22 24 21 18 18 23 28 32 36 36
28 28 29 30 30 32 31 29 29 28 33 37 34 34 34 32 32 32 33 35 34 34 33 30 28 24 25 25 22 20 19 15 13 15 16 18 21 20 18 16 18 23 27 31 33
26 30 29 30 30 31 33 31 30 28 31 36 38 35 35 35 33 35 34 37 39 38 36 35 31 28 27 27 25 23 21 19 16 17 16 15 18 20 18 15 14 18 23 26 28
30 29 31 29 32 33 33 31 29 30 31 35 38 37 38 37 36 36 38 37 39 40 38 37 33 31 28 29 29 25 23 23 19 18 17 16 16 18 18 16 13 14 18 22 25
33 32 31 31 31 33 33 33 32 32 33 35 38 40 40 40 39 35 38 39 40 40 41 39 37 33 31 31 31 26 25 26 22 20 19 18 15 15 17 16 14 12 14 18 21
Wind_Direction
322 322 319 313 323 330 328 318 319 321 346 332 282 278 282 301 314 325 330 350 34 78 77 73 64 51 40 22 4 356 352 345 341 332 335 332 328 326 325 324 324 324 322 318 318
303 316 318 313 308 320 320 317 301 298 332 313 291 290 296 299 304 311 318 49 137 127 89 71 56 33 17 357 352 351 346 339 335 328 326 327 324 326 328 325 325 325 322 321 318
290 298 310 311 304 304 313 314 299 282 271 264 277 281 293 300 301 301 307 152 167 139 86 63 25 8 355 349 352 348 342 334 332 326 324 326 325 331 329 328 329 328 324 323 325
279 283 292 303 303 297 301 305 306 282 275 262 274 283 294 293 294 300 186 173 158 112 68 27 1 345 348 347 345 345 341 334 330 326 327 328 330 331 331 332 331 326 328 330 327
294 280 275 285 297 299 293 298 300 289 269 266 264 280 288 286 281 264 192 184 161 118 15 351 343 345 347 347 347 344 336 333 331 328 330 330 332 333 334 333 331 332 336 332 329
290 289 276 267 279 291 294 292 294 295 268 264 267 267 275 274 266 229 202 186 179 234 324 336 338 346 348 351 347 338 335 334 332 331 333 332 334 335 336 334 336 340 337 335 331
293 290 290 272 264 276 287 289 288 284 275 259 263 265 264 271 236 216 210 195 209 262 307 328 343 349 353 349 343 340 337 334 334 335 334 336 337 340 339 342 345 341 338 334 330
292 288 288 287 271 262 273 286 283 282 275 259 259 259 261 252 222 213 215 212 236 271 310 330 341 346 349 346 348 346 342 336 336 337 337 340 343 344 345 349 345 342 337 333 330
312 290 287 287 280 266 262 271 279 276 272 263 255 252 255 251 222 214 213 224 247 277 312 329 339 347 351 356 358 352 345 339 341 340 342 342 345 346 352 348 345 342 337 332 330
326 308 286 282 279 269 261 258 267 270 270 268 254 250 249 250 228 214 212 227 249 284 312 327 341 350 356 5 3 357 347 343 345 344 347 340 347 355 351 348 345 340 337 333 338
322 319 300 282 279 275 263 256 258 263 265 262 260 251 250 242 229 211 216 223 246 276 308 323 339 349 4 7 4 1 353 349 350 351 352 343 350 356 350 346 345 342 339 336 344
314 317 314 294 277 272 268 256 256 256 260 261 260 252 249 237 227 215 215 221 236 267 303 314 336 350 6 9 5 4 357 354 355 354 355 346 352 355 351 350 346 346 340 341 347
302 311 313 303 284 269 267 256 255 257 256 255 258 253 245 239 227 219 218 222 231 257 299 300 326 350 7 11 9 7 0 357 359 359 354 351 349 356 353 352 351 349 343 346 351
297 300 304 305 288 274 264 261 254 255 257 254 250 253 244 240 228 222 219 222 229 247 283 279 313 321 2 12 16 14 6 0 360 358 358 356 358 356 356 355 357 353 349 349 357
297 292 295 300 294 280 269 262 258 253 255 255 250 249 245 242 231 224 222 225 228 238 265 265 284 270 341 8 21 21 14 5 2 360 3 358 1 1 358 358 1 357 355 352 3
294 291 291 294 296 290 276 265 260 257 254 256 255 249 246 241 235 226 225 228 232 234 249 249 254 249 314 350 16 26 24 13 8 9 6 5 2 0 359 2 5 2 1 356 5
287 288 287 291 294 294 280 271 261 257 259 258 256 252 247 241 239 231 225 225 234 237 243 241 242 242 283 328 5 22 25 23 17 11 8 7 6 2 2 4 7 4 2 2 4
291 282 287 286 289 291 287 276 265 261 257 260 258 257 247 244 240 236 228 227 232 239 240 239 232 234 260 293 340 12 16 18 16 12 7 5 4 4 3 5 9 11 8 7 7
289 285 282 279 283 287 287 281 270 258 256 255 254 255 251 243 240 236 231 229 232 237 240 240 229 231 245 259 302 347 9 11 18 16 10 8 2 1 2 7 11 16 14 15 15
290 281 276 278 277 282 286 286 268 260 254 252 253 250 251 247 239 237 231 230 232 235 240 240 233 229 238 252 267 318 350 2 9 13 15 6 4 1 4 10 12 17 17 19 27
286 280 278 275 273 276 281 281 264 256 255 249 250 249 247 249 243 237 233 232 233 235 238 240 239 234 232 247 255 279 323 345 358 5 9 10 3 1 4 9 14 18 21 23 27
281 280 280 275 273 276 274 272 262 257 255 254 246 248 245 244 247 241 233 233 235 236 238 240 239 236 233 239 249 264 291 324 341 355 6 5 5 4 3 8 13 20 25 25 25
276 275 274 276 275 274 269 270 266 259 256 252 250 247 249 244 244 246 240 232 233 237 239 240 240 237 236 234 244 255 271 298 324 339 351 3 2 1 3 8 13 19 25 27 25
269 275 273 274 274 271 266 267 269 260 255 254 249 247 247 250 247 243 245 240 233 235 238 237 240 240 238 238 240 249 262 279 305 322 338 352 358 0 2 10 14 17 22 29 26
266 273 272 272 270 267 263 264 268 267 260 255 252 248 248 251 251 246 241 246 241 235 236 238 239 242 243 240 241 244 255 270 287 304 318 334 352 354 360 4 10 16 17 22 27
266 268 271 273 266 264 262 263 263 264 260 256 256 248 244 248 250 245 240 240 245 243 240 239 237 239 242 245 242 244 253 264 275 288 303 316 334 350 355 360 360 7 13 15 19
265 267 266 269 264 261 258 258 260 262 267 261 255 252 247 245 246 248 249 243 243 244 244 243 242 237 239 246 247 242 248 258 266 276 289 298 314 335 348 354 354 353 2 6 12
Height
5870 5869 5868 5867 5866 5865 5864 5863 5863 5863 5863 5863 5863 5863 5863 5863 5863 5863 5863 5863 5862 5862 5863 5863 5863 5863 5862 5862 5861 5859 5858 5855 5853 5850 5847 5844 5841 5838 5835 5832 5828 5824 5820 5816 5811
5869 5869 5867 5867 5865 5865 5864 5863 5863 5863 5862 5863 5863 5862 5864 5863 5864 5864 5864 5864 5864 5864 5864 5864 5864 5864 5863 5862 5860 5858 5856 5854 5851 5848 5845 5842 5838 5835 5833 5828 5824 5820 5815 5811 5805
5867 5867 5867 5866 5865 5864 5863 5863 5862 5863 5862 5862 5863 5862 5864 5864 5864 5864 5865 5865 5865 5865 5864 5865 5865 5864 5863 5861 5859 5857 5855 5852 5849 5845 5842 5839 5836 5832 5828 5824 5821 5816 5810 5804 5797
5864 5865 5865 5865 5864 5863 5862 5862 5862 5862 5862 5861 5862 5862 5863 5864 5865 5864 5865 5865 5865 5865 5865 5865 5865 5864 5862 5861 5859 5856 5853 5850 5846 5842 5839 5836 5833 5829 5826 5822 5817 5812 5806 5799 5791
5861 5861 5862 5863 5862 5862 5862 5861 5861 5861 5861 5861 5860 5862 5862 5864 5864 5864 5865 5866 5866 5866 5865 5865 5864 5863 5861 5859 5857 5854 5851 5847 5843 5839 5836 5833 5830 5828 5823 5819 5814 5808 5801 5794 5785
5858 5859 5859 5860 5860 5860 5860 5861 5860 5860 5860 5860 5860 5860 5861 5863 5862 5863 5864 5865 5866 5866 5865 5865 5864 5863 5861 5858 5856 5853 5849 5845 5841 5837 5834 5832 5829 5826 5821 5816 5810 5803 5796 5788 5778
5856 5856 5856 5856 5857 5858 5858 5859 5859 5858 5858 5858 5858 5859 5859 5862 5861 5863 5864 5865 5865 5866 5866 5865 5864 5862 5860 5858 5855 5851 5848 5843 5839 5835 5832 5830 5827 5823 5818 5812 5806 5800 5792 5782 5772
5853 5853 5852 5853 5854 5855 5856 5856 5857 5857 5856 5856 5857 5858 5858 5859 5860 5861 5864 5865 5865 5865 5865 5864 5863 5862 5860 5857 5854 5850 5846 5841 5837 5833 5830 5828 5825 5820 5815 5810 5804 5797 5788 5777 5765
5850 5850 5849 5849 5850 5851 5853 5854 5854 5854 5855 5854 5856 5856 5857 5857 5859 5860 5862 5864 5864 5864 5864 5863 5863 5861 5859 5857 5854 5849 5844 5840 5835 5831 5828 5826 5822 5818 5813 5809 5802 5794 5784 5772 5759
5848 5847 5846 5846 5846 5847 5848 5850 5850 5851 5852 5853 5853 5856 5856 5856 5857 5859 5860 5862 5863 5863 5863 5862 5861 5860 5859 5856 5853 5848 5843 5838 5834 5832 5828 5824 5821 5817 5812 5807 5800 5791 5780 5767 5754
5845 5844 5844 5842 5843 5843 5844 5846 5849 5849 5849 5850 5852 5852 5853 5854 5855 5857 5859 5860 5862 5862 5862 5861 5860 5859 5858 5856 5852 5848 5843 5838 5833 5830 5827 5823 5819 5816 5812 5805 5798 5788 5776 5762 5750
5843 5841 5840 5840 5840 5840 5840 5841 5843 5845 5846 5847 5847 5849 5850 5852 5853 5855 5857 5860 5860 5861 5861 5861 5859 5858 5857 5855 5852 5847 5842 5837 5832 5829 5826 5822 5819 5815 5810 5804 5796 5786 5772 5758 5745
5840 5839 5838 5836 5836 5836 5836 5837 5839 5841 5842 5843 5844 5845 5847 5850 5851 5853 5855 5857 5858 5859 5859 5859 5859 5857 5856 5854 5851 5847 5842 5836 5831 5828 5824 5821 5818 5814 5810 5803 5794 5783 5769 5756 5744
5837 5836 5835 5833 5833 5832 5832 5834 5834 5835 5838 5840 5841 5842 5844 5846 5848 5850 5852 5855 5856 5857 5857 5857 5857 5856 5855 5854 5851 5846 5841 5835 5830 5827 5823 5820 5818 5814 5808 5801 5792 5781 5768 5755 5744
5834 5833 5831 5830 5829 5829 5830 5830 5831 5832 5834 5836 5837 5839 5840 5843 5846 5847 5849 5851 5853 5854 5855 5856 5855 5855 5854 5853 5850 5846 5841 5835 5830 5826 5823 5819 5817 5813 5807 5800 5791 5780 5768 5755 5744
5831 5830 5830 5828 5826 5826 5826 5827 5828 5831 5830 5832 5834 5835 5837 5838 5841 5843 5846 5849 5850 5851 5852 5852 5853 5853 5853 5851 5849 5845 5841 5836 5830 5826 5822 5818 5815 5812 5806 5799 5790 5780 5769 5756 5746
5826 5825 5824 5825 5823 5822 5822 5823 5825 5826 5828 5829 5830 5832 5833 5834 5837 5839 5842 5844 5847 5849 5849 5850 5851 5851 5851 5850 5848 5844 5841 5836 5832 5825 5821 5817 5814 5810 5805 5798 5791 5781 5770 5758 5747
5822 5820 5820 5820 5819 5818 5818 5818 5819 5822 5823 5824 5826 5828 5829 5830 5832 5835 5838 5841 5843 5845 5846 5847 5848 5849 5848 5848 5847 5843 5840 5835 5830 5825 5821 5817 5813 5811 5805 5799 5791 5783 5771 5761 5749
5817 5816 5815 5814 5813 5814 5814 5813 5816 5816 5818 5819 5820 5823 5825 5826 5828 5829 5834 5836 5838 5841 5843 5844 5844 5845 5846 5845 5845 5842 5839 5836 5831 5827 5822 5817 5813 5810 5805 5800 5791 5784 5773 5764 5752
5809 5809 5809 5808 5808 5808 5809 5810 5810 5811 5811 5813 5815 5817 5820 5822 5823 5824 5827 5831 5833 5836 5838 5840 5841 5841 5843 5843 5842 5840 5838 5835 5831 5827 5822 5817 5813 5808 5804 5799 5793 5786 5776 5768 5757
5802 5802 5802 5802 5802 5803 5804 5805 5804 5805 5807 5807 5809 5811 5813 5816 5818 5818 5822 5826 5828 5830 5833 5835 5837 5838 5838 5840 5839 5838 5836 5834 5831 5827 5822 5817 5813 5807 5803 5799 5794 5788 5779 5771 5762
5795 5795 5795 5795 5797 5797 5799 5798 5799 5798 5800 5802 5803 5806 5808 5809 5812 5814 5816 5818 5822 5825 5827 5830 5832 5833 5834 5835 5836 5835 5834 5832 5829 5827 5821 5817 5813 5807 5802 5798 5794 5789 5782 5775 5766
5788 5788 5788 5788 5790 5791 5791 5792 5792 5792 5793 5795 5797 5799 5802 5803 5806 5809 5811 5812 5815 5818 5821 5824 5826 5828 5830 5831 5832 5831 5831 5829 5827 5824 5821 5816 5813 5806 5801 5797 5794 5789 5784 5777 5770
5780 5780 5781 5780 5782 5783 5784 5785 5785 5785 5786 5787 5790 5792 5793 5797 5800 5802 5806 5807 5808 5810 5813 5816 5820 5822 5824 5825 5826 5827 5827 5826 5824 5822 5820 5816 5811 5806 5801 5796 5793 5789 5785 5779 5773
5770 5772 5772 5772 5773 5774 5775 5778 5778 5778 5779 5779 5781 5785 5787 5789 5793 5795 5798 5801 5802 5803 5805 5809 5813 5816 5817 5819 5821 5822 5822 5821 5821 5819 5817 5815 5810 5806 5801 5796 5792 5789 5785 5780 5774
5763 5764 5763 5763 5764 5765 5767 5770 5770 5769 5771 5773 5774 5776 5777 5781 5784 5786 5787 5791 5795 5798 5799 5801 5805 5808 5811 5812 5814 5817 5817 5817 5817 5816 5814 5812 5808 5805 5800 5795 5791 5787 5784 5780 5775
5754 5753 5753 5755 5754 5756 5759 5760 5761 5760 5762 5764 5766 5766 5769 5774 5774 5778 5781 5783 5786 5790 5792 5794 5797 5800 5804 5804 5806 5811 5812 5811 5812 5811 5810 5808 5806 5803 5799 5795 5790 5786 5782 5779 5775